Regional Weather Roundup
Issued by NWS

Home | Current Version | Previous Version | Graphics & Text | Print | Product List | Glossary On
Versions: 1 2 3 4 5 6 7 8 9 10 11 12 13 14 15 16 17 18 19 20 21 22 23 24 25 26 27 28 29 30 31 32 33 34 35 36 37 38 39 40 41 42 43 44 45 46 47 48 49 50
000
ASUS45 KSLC 172110
RWRUT

UTAH REGIONAL WEATHER ROUNDUP
NATIONAL WEATHER SERVICE SALT LAKE CITY UT
200 PM MST WED DEC 17 2014

UTZ001>011-023>025-172200-

NORTHERN UTAH

CITY           SKY/WX    TMP DP  RH WIND       PRES   REMARKS
BRIGHAM CITY   CLOUDY    40  28  63 SW5       29.99S
HILL AFB       PTSUNNY   39  30  69 S7        29.97S WCI  34
LOGAN          PTSUNNY   39  28  64 SW3       29.97F
OGDEN          PTSUNNY   40  30  67 W6        29.97S
PROVO AIRPORT  CLOUDY    39  30  70 VRB3      29.97F
SALT LAKE CITY CLOUDY    39  31  72 W5        29.98S
VERNAL         CLOUDY    26  23  88 CALM      30.01F
WENDOVER       MOSUNNY   36  27  69 SE3       29.98F
HEBER CITY     CLOUDY    43  23  45 SW8       29.92F
WEST JORDAN    CLOUDY    37  36  93 CALM      29.98S

$$

UTZ012>022-026-027-172200-

SOUTHERN/CENTRAL UTAH

CITY           SKY/WX    TMP DP  RH WIND       PRES   REMARKS
BLANDING       CLOUDY    32  32 100 CALM      30.02F
BRYCE CANYON   LGT SNOW  32  27  81 N5        29.95F WCI  27
CEDAR CITY     CLOUDY    35  32  88 CALM      29.97F
DELTA          CLOUDY    38  27  65 SW6       29.98S WCI  34
MILFORD        PTSUNNY   41  33  73 S14       29.96F
MOAB/CYNLANDS  LGT RAIN  36  35  96 NW8       29.96F WCI  30
PRICE          PTSUNNY   37  20  50 CALM      29.95F
ST GEORGE      CLOUDY    52  36  54 SE3       30.03F
KANAB          CLOUDY   N/A N/A N/A S6        30.04F

$$

REGIONAL REPORTS     COLORADO/ARIZONA

CITY           SKY/WX    TMP DP  RH WIND       PRES   REMARKS
CRAIG, CO      CLOUDY    29  26  89 SW3       29.96S
GRAND JUNCTION CLOUDY    38  35  89 CALM      29.94F
RIFLE          CLOUDY    38  29  70 CALM      29.93F
MONTROSE       CLOUDY    42  28  57 NW5       29.94F
CORTEZ         FLURRIES  37  32  82 NW13      29.95S WCI  29
PAGE, AZ       LGT RAIN  41  35  79 N5        29.99F
GRAND CANYON   CLOUDY    33  31  92 SW8       30.01F FOG     WCI  26
KINGMAN        LGT RAIN  46  40  79 E3        30.02F
FLAGSTAFF      CLOUDY    33  30  88 SW14      30.01S WCI  23

$$

REGIONAL REPORTS    NEVADA/IDAHO/WYOMING

CITY           SKY/WX    TMP DP  RH WIND       PRES   REMARKS
LAS VEGAS, NV  CLOUDY    53  38  56 S5        29.97F
ELY            CLOUDY    37  24  59 W5        29.95F WCI  33
ELKO           CLOUDY    27  25  92 CALM      29.97F
POCATELLO, ID  MOSUNNY   39  31  72 NE5       29.98F
BURLEY         SUNNY     41  30  65 NE10      29.95F
EVANSTON, WY   CLOUDY    35  20  54 SW3       29.93F
ROCK SPRINGS   SUNNY     26  18  71 NE3       29.95F
KEMMERER       MOSUNNY   36  18  48 SW10      29.93F WCI  28

$$



USA.gov is the U.S. government's official web portal to all federal, state and local government web resources and services.